Location: Clayton (historical)
(34.0300°N, 118.0259°W)
Time: 23:41:41
(UTC+00:00)

Envisat - Pass Details

Date: 28 January 2021
Orbit: 764 x 766 km, 98.1° (Epoch: 06 March)

Event Time Altitude Azimuth Distance (km) Brightness Sun altitude
Rises 02:14:51 0° 216° (SW) 3,219 7.1 -12.0°
Reaches altitude 10° 02:18:46 10° 247° (WSW) 2,299 6.9 -12.8°
Maximum altitude 02:20:38 12° 268° (W) 2,168 6.7 -13.2°
Drops below altitude 10° 02:22:30 10° 290° (WNW) 2,304 6.4 -13.6°
Sets 02:26:28 0° 321° (NW) 3,236 6.6 -14.4°
